Regional Weather Roundup
Issued by NWS Northern Indiana

Home | Current Version | Previous Version | Graphics & Text | Print | Product List | Glossary On
Versions: 1 2 3 4 5 6 7 8 9 10 11 12 13 14 15 16 17 18 19 20 21 22 23 24 25 26 27 28 29 30 31 32 33 34 35 36 37 38 39 40 41 42 43 44 45 46 47 48 49 50
000
ASUS43 KIWX 210410
RWRIWX

KIWX WEATHER ROUNDUP
NATIONAL WEATHER SERVICE NORTHERN INDIANA
1100 PM EST THU NOV 20 2014

NOTE: "FAIR" INDICATES FEW OR NO CLOUDS BELOW 12,000 FEET WITH NO
SIGNIFICANT WEATHER AND/OR OBSTRUCTIONS TO VISIBILITY.

* THESE STATIONS ARE NOT UNDER NWS QUALITY CONTROL. THEY ALSO MAY NOT
  REPORT WEATHER SUCH AS PRECIPITATION OR FOG.

INZ001>027-210500-
NORTHERN INDIANA

CITY           SKY/WX    TMP DP  RH WIND       PRES   REMARKS
GARY*          CLEAR     21   4  47 W12       30.27R WCI  10
VALPARAISO     CLEAR     18   3  52 W8        30.24R WCI   8
MICHIGAN CITY* CLOUDY    25   5  42 NW12      30.23R WCI  14
LAPORTE*       MOCLDY    24   9  52 NW6       30.22R WCI  17
KNOX*          CLEAR     17   6  61 W9        30.23R WCI   6
SOUTH BEND     CLOUDY    24  10  55 NW10      30.20R WCI  14
GOSHEN         CLOUDY    22  10  60 W12       30.18R WCI  10
MONTICELLO*    CLEAR     18   8  66 NW8       30.25R WCI   7
LOGANSPORT*    CLEAR     21   7  53 NW8       30.25R WCI  12
ROCHESTER*     CLEAR     23   9  54 W8        30.23R WCI  14
WARSAW*        CLEAR     19   7  58 W13       30.20R WCI   7
ANGOLA*        PTCLDY    19  10  68 W3        30.14R
FORT WAYNE     PTCLDY    18   7  62 W12       30.20R WCI   5
HUNTINGTON*    CLEAR     19   8  62 W8        30.21R WCI   8
PERU/GRISSOM   CLEAR     20  10  63 NW14      30.23R WCI   7
MARION*        CLEAR     18   8  66 W10       30.24R WCI   6

$$
INZ028>050-210500-
CENTRAL INDIANA

CITY           SKY/WX    TMP DP  RH WIND       PRES   REMARKS
LAFAYETTE      CLEAR     19   8  62 NW9       30.27R WCI   8
KOKOMO*        CLEAR     19   7  58 NW13      30.24R WCI   7
MUNCIE*        CLEAR     21  12  68 W8        30.22R WCI  11
INDIANAPOLIS   CLEAR     19  13  77 W7        30.25R WCI  10

$$
MIZ043>046-050>051-056>058-064>065-071>073-077>080-210500-
SOUTHWEST LOWER MICHIGAN

CITY           SKY/WX    TMP DP  RH WIND       PRES   REMARKS
BATTLE CREEK   LGT SNOW  22  16  78 NW6       30.15R WCI  14
BENTON HARBOR  CLOUDY    23   8  52 NW13G26   30.20R WCI  11
COLDWATER*     PTCLDY    17  13  83 W5        30.14R WCI  10
HILLSDALE*     MOCLDY    17  15  92 W6        30.12R WCI   8
HOLLAND        FLURRIES  22  11  62 NW15G24   30.18R WCI   9
GRAND RAPIDS   FLURRIES  17  11  77 NW10      30.16R WCI   5
KALAMAZOO      FLURRIES  22  12  65 NW14      30.16R WCI   9
STURGIS*       MOCLDY    21  10  63 W9        30.15R WCI  11
THREE RIVERS*  FAIR      22   9  56 NW8       30.17R WCI  12

$$
OHZ001>008-015>018-024>025-210500-
NORTHWEST OHIO

CITY           SKY/WX    TMP DP  RH WIND       PRES   REMARKS
WAUSEON*       MOCLDY    16  10  79 W5        30.16R WCI   9
DEFIANCE       CLEAR     14   6  70 SW3       30.18R
FINDLAY        PTCLDY    19  10  68 SW8       30.17R WCI   9
TOLEDO EXPRESS MOCLDY    18  10  71 W5        30.17R WCI  11
TOLEDO METCALF MOCLDY    21  12  68 W9        30.18R WCI  11
LIMA           CLEAR     21  11  65 W10       30.17R WCI  10

$$
AND FOR LAKE MICHIGAN COASTAL AND OPEN LAKE BUOY OBSERVATIONS

STATION/POSITION TEMP    WIND        PRES    VSBY  WAVE
                 AIR SEA DIR/SP/G                  HT/PER
                 (F)     (DEG/KT/KT) (MB)    (MI)  (FT/S)
CALUMET HARBOR    20     270/  8/ 13 1023.3R
MICHIGAN CITY     24     280/ 21/ 27   N/A
SAINT JOSEPH      26     270/ 16/ 23 1024.0R
SOUTH LAKE BUOY   22 43  300/ 21/ 25 1024.1R         6/ 6

$$
&&



USA.gov is the U.S. government's official web portal to all federal, state and local government web resources and services.